Boise, ID

6:51 AM MDT on April 23, 2017 (GMT -0600)
Boise Air Term

Weather History for KBOI - May, 2013

Change the Weather History Date:

Tuesday, May 7, 2013

  Actual Average Record
Temperature  
Mean Temperature 64 °F 56 °F  
Max Temperature 75 °F 69 °F 93 °F (1987)
Min Temperature 53 °F 44 °F 26 °F (1981)
Degree Days  
Heating Degree Days 1 9  
Month to date heating degree days 47 71  
Since 1 July heating degree days 5199 5295  
Cooling Degree Days 0 1  
Month to date cooling degree days 0 6  
Year to date cooling degree days 0 9  
Growing Degree Days 14 (Base 50)    
Moisture  
Dew Point 40 °F    
Average Humidity 44    
Maximum Humidity 59    
Minimum Humidity 29    
Precipitation  
Precipitation T in 0.04 in 0.85 in (1883)
Month to date precipitation 0.04 0.32  
Year to date precipitation 3.19 5.17  
Snow  
Snow 0.00 in 0.00 in T in (1953)
Month to date snowfall 0.0 0.0  
Since 1 July snowfall 16.0 19.2  
Snow Depth 0.00 in    
Sea Level Pressure  
Sea Level Pressure 29.80 in    
Wind  
Wind Speed 7 mph (ESE)    
Max Wind Speed 22 mph    
Max Gust Speed 29 mph    
Visibility 10 miles    
Events      
T = Trace of Precipitation, MM = Missing Value Source: NWS Daily Summary

Daily Weather History Graph

Daily Weather History Graph

Search for Another Location

Airport or City:

Trip Planner

Search our weather history database for the weather conditions in past years. The results will help you decide how hot, cold, wet, or windy it might be!

Date:

Astronomy

May. 07, 2013 Rise Set
Actual Time 6:29 AM MDT 8:54 PM MDT
Civil Twilight 5:56 AM MDT 9:26 PM MDT
Nautical Twilight 5:16 AM MDT 10:06 PM MDT
Astronomical Twilight 4:32 AM MDT 10:52 PM MDT
Moon 5:09 AM MDT (5/7) 6:55 PM MDT (5/7)
Length of Visible Light 15h 29m
Length of Day
14h 25m
Waning Crescent, 5% of the Moon is Illuminated
May 7
Waning Crescent
May 9
New
May 17
First Quarter
May 24
Full
May 31
Last Quarter

Hourly Weather History & Observations

Time (MDT) Temp. Dew Point Humidity Pressure Visibility Wind Dir Wind Speed Gust Speed Precip Events Conditions
12:53 AM 61.0 °F 37.9 °F 42% 29.77 in 10.0 mi ESE 6.9 mph - N/A   Clear
1:53 AM 57.0 °F 39.9 °F 53% 29.78 in 10.0 mi ESE 4.6 mph - N/A   Scattered Clouds
2:53 AM 57.9 °F 41.0 °F 53% 29.75 in 10.0 mi Calm Calm - N/A   Scattered Clouds
3:53 AM 54.0 °F 39.9 °F 59% 29.76 in 10.0 mi ESE 6.9 mph - N/A   Clear
4:53 AM 55.0 °F 39.0 °F 55% 29.78 in 10.0 mi SSW 3.5 mph - N/A   Partly Cloudy
5:53 AM 54.0 °F 37.9 °F 55% 29.78 in 10.0 mi SE 6.9 mph - N/A   Partly Cloudy
6:53 AM 54.0 °F 39.0 °F 57% 29.79 in 10.0 mi NW 3.5 mph - N/A   Overcast
7:53 AM 55.9 °F 39.9 °F 55% 29.80 in 10.0 mi Calm Calm - N/A   Partly Cloudy
8:53 AM 61.0 °F 41.0 °F 48% 29.80 in 10.0 mi Calm Calm - N/A   Clear
9:53 AM 63.0 °F 41.0 °F 45% 29.82 in 10.0 mi Calm Calm - N/A   Clear
10:53 AM 66.9 °F 39.9 °F 37% 29.81 in 10.0 mi Calm Calm - N/A   Clear
11:53 AM 71.1 °F 37.0 °F 29% 29.81 in 10.0 mi Variable 3.5 mph - N/A   Clear
12:53 PM 73.0 °F 39.9 °F 30% 29.81 in 10.0 mi SSE 17.3 mph 24.2 mph N/A   Clear
1:53 PM 72.0 °F 41.0 °F 33% 29.80 in 10.0 mi SSE 18.4 mph 24.2 mph N/A   Clear
2:53 PM 73.0 °F 39.0 °F 29% 29.79 in 10.0 mi South 5.8 mph 17.3 mph N/A   Clear
3:53 PM 72.0 °F 39.0 °F 30% 29.80 in 10.0 mi SE 8.1 mph - N/A   Mostly Cloudy
4:53 PM 71.1 °F 42.1 °F 35% 29.82 in 10.0 mi SE 15.0 mph 23.0 mph N/A   Partly Cloudy
5:53 PM 66.9 °F 43.0 °F 42% 29.81 in 10.0 mi SE 10.4 mph - N/A   Overcast
6:53 PM 68.0 °F 43.0 °F 40% 29.82 in 10.0 mi NNE 3.5 mph - N/A   Scattered Clouds
7:53 PM 68.0 °F 43.0 °F 40% 29.82 in 10.0 mi East 11.5 mph - N/A   Clear
8:53 PM 69.1 °F 37.9 °F 32% 29.81 in 10.0 mi NE 17.3 mph 23.0 mph N/A   Mostly Cloudy
9:53 PM 66.9 °F 39.0 °F 36% 29.81 in 10.0 mi NNW 5.8 mph - N/A   Partly Cloudy
10:53 PM 66.0 °F 41.0 °F 40% 29.85 in 10.0 mi NE 9.2 mph - N/A   Mostly Cloudy
11:53 PM 62.1 °F 41.0 °F 46% 29.86 in 10.0 mi SE 5.8 mph - N/A   Clear